Theta_e
324 325 325 326 326 325 326 327 326 325 325 324 326 328 327 329 329 325 316 322 326 329 326 325 324 323 324 320 324 320 304 300 304 306 309 309 308 311 313 312 313 318 318 324 330
322 324 325 325 325 325 325 326 326 325 325 325 324 327 327 328 323 316 325 333 333 330 323 321 318 320 315 316 318 312 304 303 309 309 310 310 307 309 308 309 311 315 323 329 328
321 322 323 324 325 325 325 325 325 325 325 324 324 325 326 326 311 308 327 333 332 331 326 323 321 318 312 314 313 311 305 309 309 312 315 314 309 309 306 305 311 312 320 326 324
319 321 322 323 323 324 325 324 325 325 325 324 324 325 325 321 291 319 329 331 332 327 324 321 317 312 308 306 313 306 311 311 312 313 315 312 314 311 307 309 313 311 323 325 322
317 318 320 320 322 323 324 324 324 324 324 324 324 325 319 307 305 324 328 330 327 323 318 316 312 310 304 306 307 307 309 312 311 312 312 315 311 310 311 314 313 313 313 323 323
315 316 317 319 320 321 322 323 323 323 323 323 323 324 310 296 314 320 325 325 322 320 316 316 313 313 308 306 304 307 308 309 310 310 311 310 310 310 311 315 315 311 311 315 322
314 314 316 317 318 320 321 321 322 322 323 324 323 315 305 300 313 314 321 323 323 320 314 316 317 312 310 306 309 307 302 305 307 308 307 311 305 307 313 315 312 313 311 313 317
312 313 314 315 316 318 319 320 321 321 321 323 321 312 300 312 311 317 316 321 324 322 319 318 318 314 310 310 306 302 302 296 304 306 307 307 297 306 310 311 311 310 310 311 314
311 312 313 314 315 316 318 319 320 321 321 321 312 308 299 315 307 309 316 315 319 320 320 320 318 310 308 302 297 299 292 295 298 304 303 303 298 306 309 308 306 308 310 313 312
309 310 312 313 314 315 316 317 318 319 318 316 311 302 303 301 307 307 317 316 315 315 313 312 309 303 302 298 289 291 292 294 294 299 301 299 299 304 307 307 305 306 308 310 313
309 309 310 311 313 314 312 310 302 301 306 302 301 300 303 307 310 305 311 313 313 310 301 306 298 293 297 301 300 297 294 293 296 301 298 297 299 302 305 305 305 305 306 308 311
307 308 308 310 312 313 309 301 301 307 296 304 304 303 307 307 299 302 308 305 303 298 302 299 293 299 301 300 298 297 294 294 297 300 297 296 296 300 302 303 305 305 306 307 308
307 307 308 309 311 309 303 302 309 310 296 300 303 301 302 305 298 299 304 305 300 297 298 293 296 302 299 297 295 296 294 294 294 298 299 296 294 296 301 303 305 307 308 308 308
305 306 307 307 303 304 300 306 309 308 287 289 296 299 303 303 296 304 306 305 301 295 297 296 300 298 297 295 297 292 298 297 295 294 287 296 285 293 297 300 302 304 305 307 309
305 305 306 307 300 298 302 307 309 302 275 291 295 306 303 297 297 298 306 304 296 296 296 292 295 295 295 296 299 294 299 297 296 293 292 292 288 291 296 295 298 301 303 305 308
304 304 305 302 300 303 306 307 303 283 275 286 294 293 294 296 295 298 300 304 303 296 296 295 300 298 297 299 299 300 296 296 295 293 284 289 288 287 292 295 299 301 302 303 306
304 303 303 303 294 304 304 299 281 275 286 283 286 291 291 290 291 294 293 293 290 286 286 292 293 298 300 295 300 298 292 284 283 282 282 290 288 290 297 299 299 300 301 303 304
303 303 302 303 304 304 300 287 275 281 283 290 289 290 287 290 289 292 291 289 294 291 287 285 283 292 298 296 293 293 292 284 274 277 280 287 283 290 299 302 303 303 304 304 304
303 298 296 301 304 302 290 278 279 283 287 287 289 285 286 289 289 290 289 289 292 293 285 285 285 294 296 298 297 292 289 294 284 284 283 284 290 296 299 300 300 301 301 301 304
296 295 294 302 303 297 284 279 281 287 291 290 283 286 283 285 286 287 287 292 291 295 296 289 283 292 295 297 297 295 296 287 286 279 278 283 282 288 293 297 300 299 299 300 301
294 287 295 301 300 288 278 281 284 288 291 288 286 285 287 285 287 286 287 291 293 293 295 292 287 286 291 290 289 291 290 290 290 285 279 278 283 293 294 296 296 296 297 296 296
291 281 297 299 284 284 280 284 288 286 288 289 291 289 288 288 286 287 287 290 296 295 290 293 289 281 286 293 295 293 291 291 283 279 284 283 284 296 297 298 298 298 298 298 297
285 287 297 295 278 279 284 284 287 286 285 285 288 291 292 288 285 288 289 294 296 294 291 293 287 280 284 288 291 290 292 292 291 288 284 281 283 296 296 295 297 296 297 298 300
287 279 287 289 287 283 281 280 282 289 287 287 287 292 290 288 290 287 288 293 296 295 297 296 288 283 280 284 289 286 290 292 290 284 284 284 287 292 294 295 297 297 296 296 296
288 283 284 280 280 283 284 283 281 282 287 288 285 289 289 284 287 285 290 291 295 296 296 294 284 285 287 288 288 288 288 289 288 289 285 287 288 292 294 294 295 296 296 296 297
283 283 287 284 284 282 283 281 281 282 286 283 283 285 290 286 287 285 289 289 287 293 292 293 282 285 278 286 287 283 287 287 289 290 290 290 289 296 296 294 293 294 295 296 297
292 293 288 285 283 281 280 283 283 285 287 289 287 285 288 290 292 293 294 293 292 291 289 287 284 281 280 283 283 278 284 286 286 290 290 286 291 294 289 293 294 294 295 295 295
Wind_Speed
17 20 20 20 18 17 16 16 15 13 10 9 8 6 5 4 5 7 9 3 3 7 9 10 10 7 5 4 1 3 3 5 10 7 6 8 4 2 4 2 1 6 5 8 14
17 16 21 21 20 18 17 16 16 15 12 10 9 6 4 2 9 16 15 11 1 3 6 9 9 4 5 4 2 3 4 8 10 6 10 7 2 6 3 5 5 6 9 14 9
19 18 17 21 21 21 19 17 16 15 13 11 9 8 4 5 10 11 17 12 9 3 9 9 10 7 10 7 4 5 8 12 10 7 8 10 3 1 4 5 7 11 15 15 11
18 19 18 17 22 21 20 18 17 16 14 12 10 8 6 8 9 4 6 18 15 10 9 11 8 11 7 10 8 13 9 9 13 5 4 8 9 6 7 10 5 5 16 14 13
17 18 18 18 17 21 21 20 17 18 16 15 12 9 4 11 13 5 5 7 12 13 15 13 12 11 13 9 13 8 8 14 10 6 6 6 9 7 9 9 5 6 2 13 11
18 17 19 18 17 17 20 21 18 18 18 17 15 12 10 21 15 13 7 9 12 15 15 14 11 11 10 14 13 8 9 13 14 7 9 9 9 7 7 8 8 8 8 7 12
18 18 18 18 19 17 16 19 20 18 18 18 17 12 17 23 5 17 9 5 12 14 15 13 13 7 5 11 10 13 12 12 10 10 9 7 11 12 10 12 8 10 8 9 9
19 18 19 19 19 19 17 16 18 20 19 18 17 12 15 18 20 7 13 8 10 11 13 9 9 9 11 8 11 7 13 13 7 13 12 8 16 8 10 13 14 12 9 10 11
20 18 19 20 19 19 17 14 13 19 19 18 11 10 12 11 21 21 11 14 8 5 6 1 5 6 8 10 11 12 9 15 14 17 11 13 8 8 11 14 14 9 10 9 10
20 20 20 21 21 18 17 13 9 12 14 12 8 9 10 20 15 18 8 12 8 10 5 5 3 6 8 13 15 6 16 17 15 9 15 15 17 9 9 12 11 9 9 9 11
21 21 21 23 22 21 14 5 5 7 15 11 11 8 4 15 14 16 16 10 15 10 11 12 10 20 26 16 13 13 15 16 13 13 13 10 14 14 10 11 14 13 12 10 9
24 23 21 23 24 22 14 16 21 2 8 25 14 28 18 17 11 17 21 16 16 15 13 9 21 23 9 14 16 17 18 19 9 5 4 8 14 7 9 13 16 14 13 14 12
24 23 22 21 25 19 18 24 15 7 8 12 18 23 29 12 16 26 29 24 21 21 22 16 20 16 18 18 17 18 19 18 13 9 5 7 12 10 11 14 14 19 15 12 11
24 24 24 22 17 15 19 23 12 6 10 8 16 10 23 12 15 21 26 23 11 25 25 16 20 21 21 19 17 19 16 13 11 8 7 2 9 12 7 17 20 22 19 18 17
25 23 27 26 9 21 22 15 11 8 24 16 11 9 18 14 9 17 25 24 19 18 17 18 14 23 21 23 19 16 12 15 16 14 10 14 9 12 7 14 22 14 13 11 20
25 23 26 16 9 12 14 17 10 15 17 11 14 14 16 23 11 18 24 21 14 14 17 21 10 12 22 16 17 17 3 6 12 10 12 22 16 12 15 23 24 13 12 11 15
24 24 22 14 17 12 18 12 12 18 11 10 10 22 28 16 17 19 29 30 17 19 21 21 22 14 13 16 15 13 11 5 8 10 11 13 10 19 19 16 12 11 13 10 11
25 24 17 15 11 16 13 12 17 25 9 8 12 23 29 24 18 24 27 22 25 17 11 17 16 27 19 24 16 13 14 6 7 3 7 9 7 14 19 20 22 19 19 17 10
23 12 13 8 14 10 8 18 13 5 14 12 19 25 16 19 13 21 28 28 28 25 13 19 18 15 8 10 16 15 17 18 7 4 5 3 8 10 13 17 7 6 6 6 6
10 9 10 14 14 10 10 17 6 7 15 22 17 22 20 21 18 17 25 25 28 28 21 8 10 11 23 9 12 17 8 6 5 10 12 7 5 9 2 9 10 4 5 7 8
9 3 6 15 12 7 8 6 13 5 10 22 22 11 12 18 16 13 18 18 26 29 22 13 6 11 10 17 18 8 7 3 1 5 4 2 5 5 5 7 8 7 5 3 2
6 5 12 14 11 3 7 7 5 14 11 7 13 17 15 25 16 16 24 14 31 22 29 22 2 5 27 9 8 19 15 10 6 7 2 2 9 7 7 6 7 5 2 3 5
5 5 10 13 11 10 7 4 5 9 12 7 6 18 19 20 14 17 20 17 29 25 23 16 4 5 2 3 5 15 17 18 10 3 6 6 8 6 3 5 8 7 8 6 6
4 7 6 10 12 6 12 6 7 4 6 12 6 17 20 20 12 19 14 14 24 21 16 18 6 5 9 5 10 8 17 19 18 10 17 14 21 24 20 13 13 8 7 8 9
6 5 2 11 15 13 11 19 10 6 5 13 8 36 20 12 13 11 12 8 10 19 14 13 11 5 9 2 7 1 10 17 19 21 11 17 18 20 12 10 8 13 13 13 12
6 5 6 4 16 23 12 14 23 16 4 7 17 14 17 12 12 19 16 19 13 14 13 9 5 7 5 5 5 3 7 9 17 19 15 17 18 21 11 7 8 8 10 14 18
3 3 4 14 12 15 15 7 15 15 7 4 19 18 17 17 14 16 12 9 13 17 15 12 6 5 14 6 6 8 20 8 7 12 15 16 21 9 3 8 8 8 9 10 12
Wind_Direction
259 248 241 233 229 230 227 227 223 226 230 242 228 223 261 298 291 257 248 278 23 13 336 297 279 267 273 256 268 294 276 254 267 280 271 130 191 163 26 108 117 132 64 93 118
251 252 244 239 232 226 227 227 223 217 219 227 233 217 229 266 269 260 252 246 140 2 288 277 282 257 259 216 207 245 236 249 275 1 345 146 186 160 193 202 179 138 106 111 130
254 247 242 242 234 228 224 222 222 217 213 217 221 222 205 242 273 251 231 185 196 226 269 300 287 281 266 247 219 224 236 278 287 7 11 334 123 347 283 251 203 195 158 146 147
254 247 241 237 236 230 227 220 215 212 208 209 211 211 193 225 235 53 30 198 179 205 243 249 247 249 242 246 208 267 269 275 290 353 18 315 321 311 227 276 38 48 145 152 161
260 258 245 236 229 233 229 227 214 207 206 204 199 185 184 224 231 130 89 131 176 196 218 222 232 236 239 238 255 230 253 281 267 318 278 267 285 270 290 290 209 122 11 161 175
258 255 251 238 230 223 228 229 224 208 206 207 197 180 226 237 232 225 91 146 186 201 213 219 228 241 258 247 253 254 232 239 266 250 258 251 264 276 268 278 290 173 197 219 187
254 254 250 243 234 227 223 224 224 218 203 202 201 193 223 227 291 218 182 172 200 193 214 219 236 256 215 270 259 267 260 277 252 271 256 278 268 257 262 280 280 283 200 217 211
251 247 247 242 236 229 227 225 223 217 212 204 193 206 233 223 254 288 208 194 179 213 212 228 247 269 272 264 272 246 248 247 227 246 248 202 255 277 287 238 242 250 215 217 210
252 245 241 239 233 224 224 227 226 220 214 200 191 213 228 198 228 229 227 193 169 195 186 19 219 241 248 246 257 226 243 233 242 242 237 207 252 233 252 260 272 259 245 238 205
249 249 241 233 227 219 214 217 229 234 222 197 200 186 239 224 201 200 198 217 146 167 129 156 145 215 224 208 219 213 224 241 254 232 223 241 247 228 253 275 278 277 259 252 264
244 242 243 236 224 216 207 194 186 217 218 217 173 215 235 212 195 190 195 205 165 174 182 174 183 207 211 214 229 254 242 249 246 224 255 253 238 240 238 257 271 262 266 264 269
237 236 236 232 223 214 206 207 209 149 226 235 196 204 227 187 187 191 189 192 181 197 176 170 216 217 206 226 230 237 251 261 272 239 306 260 266 250 245 259 265 261 254 246 250
234 233 235 233 223 216 211 220 213 212 230 206 202 201 201 205 209 189 186 196 190 193 195 194 210 205 204 223 231 235 238 249 270 313 319 341 284 279 270 279 268 260 261 250 253
234 229 227 227 226 210 211 220 209 137 253 192 194 223 191 234 218 190 197 183 180 203 200 216 221 193 208 221 215 233 230 253 268 283 254 108 275 249 245 252 247 246 246 251 244
236 230 226 210 229 198 204 201 182 170 237 172 188 163 185 190 159 199 191 200 199 186 194 207 202 214 202 212 208 233 223 235 232 247 261 259 264 256 202 252 248 252 257 257 239
227 230 221 212 206 215 192 176 161 215 225 163 158 164 182 184 221 169 184 209 218 208 204 225 194 206 221 223 207 230 215 251 241 242 238 242 225 260 245 248 266 268 260 261 247
216 220 218 209 209 222 183 162 204 215 142 157 155 177 182 177 194 180 181 194 196 195 209 216 224 208 207 221 202 204 200 227 220 217 232 236 225 240 268 252 270 258 261 261 269
214 216 236 223 177 184 180 199 220 211 189 162 150 182 190 163 195 187 180 191 210 209 187 196 207 219 209 207 200 206 189 191 211 200 249 218 232 250 237 256 245 252 258 265 288
219 205 217 184 183 193 191 199 214 190 185 165 158 172 178 180 155 179 187 189 194 199 202 193 225 187 217 210 200 206 215 227 289 103 290 266 296 300 264 270 267 266 247 279 286
201 200 190 187 190 197 194 215 183 255 170 185 182 178 181 174 170 167 180 191 194 207 207 172 215 189 197 169 239 212 165 183 179 216 228 225 258 240 279 247 247 266 49 23 2
185 207 196 182 185 204 207 209 209 234 276 207 176 172 178 174 181 185 180 177 193 201 209 219 175 200 188 198 189 189 191 227 81 229 188 148 230 230 116 66 81 87 82 67 319
175 194 165 160 199 191 212 159 214 220 244 268 247 155 164 173 177 180 194 192 193 184 196 202 159 213 207 181 223 217 204 177 182 202 225 105 254 340 79 118 121 113 149 247 231
182 169 162 161 202 202 123 158 179 221 195 266 238 187 165 165 170 196 201 201 180 181 185 184 189 148 136 335 298 224 219 219 224 330 193 199 261 188 174 335 332 326 323 320 302
152 179 198 179 201 182 181 189 201 230 187 202 283 209 176 176 177 188 187 183 173 192 174 156 140 210 199 206 141 199 207 220 217 222 236 238 263 276 288 306 309 307 322 334 332
181 210 240 169 186 199 174 186 191 195 225 195 259 204 163 164 166 162 173 151 147 183 170 181 213 180 268 176 63 350 228 213 213 226 220 241 245 256 262 275 309 327 334 334 333
164 140 127 159 171 187 201 189 203 212 165 188 233 323 158 167 172 161 158 163 178 177 172 172 219 163 225 240 120 182 257 241 221 225 241 249 260 260 270 305 307 337 352 353 345
184 103 154 152 174 183 196 203 214 197 165 216 196 217 242 179 185 177 136 117 158 167 167 156 129 142 227 115 50 272 217 230 257 234 223 231 242 265 355 24 344 343 31 354 341